{"data":{"norad_id":63843,"intl_designator":"2025-093H","name":"STARLINK-33777","alt_names":[],"object_type":"PAYLOAD","status":"ACTIVE","operator":null,"country":"US","launch_date":"2025-05-07","launch_site_code":"AFETR","launch_vehicle":null,"mission":null,"orbit_class":"UNKNOWN","rcs_meters":null,"size_class":null,"mass_kg":null,"dimensions":null,"purposes":["comms"],"wikipedia_slug":null,"has_3d_model":false,"image_url":null,"decayed_at":null,"tle_current":{"epoch":"2026-05-24T23:38:47.607072Z","epoch_age_seconds":87065,"freshness":"FRESH","line1":"1 63843U 25093H   26144.98527323  .00027334  00000+0  99828-3 0  9996","line2":"2 63843  43.0034   6.7598 0001526 277.3441  82.7237 15.27608587 59649","mean_motion":15.27608587,"eccentricity":0.0001526,"inclination_deg":43.0034,"raan_deg":6.7598,"arg_perigee_deg":277.3441,"mean_anomaly_deg":82.7237,"bstar":0.00099828,"rev_number":5964,"period_min":94.264984646882,"perigee_km":481.9164936765,"apogee_km":484.01050154837,"semimajor_km":6861.1004976124,"source":"CELESTRAK","updated_at":"2026-05-25T13:38:20.147308Z"}}}